Location: Quaker Farms
(41.4276°N, 73.1557°W)
Time: 23:08:04
(UTC+00:00)

Vanguard 1 - Pass Details

Date: 19 June 2021
Orbit: 651 x 3832 km, 34.2° (Epoch: 26 July)

Event Time Altitude Azimuth Distance (km) Brightness Sun altitude
Rises 01:43:48 0° 231° (SW) 7,839 14.7 -11.6°
Reaches altitude 10° 01:49:14 10° 228° (SW) 6,913 14.4 -12.3°
Maximum altitude 02:11:26 54° 159° (SSE) 3,848 12.7 -15.0°
Drops below altitude 10° 02:27:03 10° 88° (E) 5,078 13.4 -16.8°
Sets 02:30:19 0° 83° (E) 5,735 13.7 -17.1°
